Location: Walnut Hills Mobile Home Park
(34.0445°N, 117.8184°W)
Time: 04:17:23
(UTC+00:00)

SKYMED 2 - Pass Details

Date: 17 December 2025
Orbit: 622 x 623 km, 97.9° (Epoch: 21 January)

Event Time Altitude Azimuth Distance (km) Brightness Sun altitude
Rises 13:23:56 0° 175° (S) 2,889 7.3 -17.5°
Reaches altitude 10° 13:26:09 10° 179° (S) 1,987 6.4 -17.0°
Maximum altitude 13:30:25 59° 259° (W) 723 3.6 -16.2°
Enters shadow 13:34:09 13° 338° (NNW) 1,782 5.5 -15.5°
